Kingman, AZ

5:01 PM MST on May 29, 2017 (GMT -0700)
Kingman

Weather History for KIGM - October, 2011

Change the Weather History Date:

Monday, October 10, 2011

  Actual Average Record
Temperature  
Mean Temperature 59 °F 65 °F  
Max Temperature 74 °F 80 °F 95 °F (1936)
Min Temperature 43 °F 51 °F 29 °F (1924)
Degree Days  
Heating Degree Days 6 3  
Month to date heating degree days 59 17  
Since 1 July heating degree days 61 23  
Cooling Degree Days 0 3  
Month to date cooling degree days 27 41  
Year to date cooling degree days 2069 2067  
Growing Degree Days 8 (Base 50)    
Moisture  
Dew Point 37 °F    
Average Humidity 51    
Maximum Humidity 82    
Minimum Humidity 20    
Precipitation  
Precipitation 0.00 in 0.02 in 0.70 in (1985)
Month to date precipitation 0.74 0.15  
Year to date precipitation 7.15 6.44  
Sea Level Pressure  
Sea Level Pressure 29.85 in    
Wind  
Wind Speed 4 mph (SSW)    
Max Wind Speed 13 mph    
Max Gust Speed 16 mph    
Visibility 10 miles    
Events      
T = Trace of Precipitation, MM = Missing Value Source: NWS Daily Summary

Daily Weather History Graph

Daily Weather History Graph

Search for Another Location

Airport or City:

Trip Planner

Search our weather history database for the weather conditions in past years. The results will help you decide how hot, cold, wet, or windy it might be!

Date:

Astronomy

Oct. 10, 2011 Rise Set
Actual Time 6:37 AM MST 6:07 PM MST
Civil Twilight 6:12 AM MST 6:32 PM MST
Nautical Twilight 5:42 AM MST 7:02 PM MST
Astronomical Twilight 5:13 AM MST 7:31 PM MST
Moon 5:13 PM MST (10/10) 5:23 AM MST (10/10)
Length of Visible Light 12h 20m
Length of Day
11h 29m
Waxing Gibbous, 98% of the Moon is Illuminated
Oct 10
Waxing Gibbous
Oct 11
Full
Oct 19
Last Quarter
Oct 26
New
Nov 2
First Quarter

Hourly Weather History & Observations

Time (MST) Temp. Windchill Dew Point Humidity Pressure Visibility Wind Dir Wind Speed Gust Speed Precip Events Conditions
12:48 AM 50.0 °F - 37.9 °F 63% 29.87 in 10.0 mi SSE 4.6 mph - N/A   Clear
1:48 AM 50.0 °F - 37.9 °F 63% 29.87 in 10.0 mi Calm Calm - N/A   Clear
2:48 AM 46.0 °F - 37.9 °F 73% 29.87 in 10.0 mi Calm Calm - N/A   Clear
3:48 AM 48.0 °F - 37.9 °F 68% 29.86 in 10.0 mi Calm Calm - N/A   Clear
4:48 AM 43.0 °F - 37.0 °F 80% 29.87 in 10.0 mi Calm Calm - N/A   Clear
5:48 AM 44.1 °F 41.5 °F 37.9 °F 79% 29.87 in 10.0 mi SE 4.6 mph - N/A   Clear
6:48 AM 46.0 °F - 37.9 °F 73% 29.88 in 10.0 mi Calm Calm - N/A   Clear
7:48 AM 52.0 °F - 39.9 °F 63% 29.90 in 10.0 mi Calm Calm - N/A   Clear
8:48 AM 60.1 °F - 39.0 °F 46% 29.90 in 10.0 mi North 3.5 mph - N/A   Clear
9:48 AM 63.0 °F - 37.9 °F 40% 29.90 in 10.0 mi NNW 3.5 mph - N/A   Clear
10:48 AM 64.9 °F - 36.0 °F 34% 29.89 in 10.0 mi Calm Calm - N/A   Clear
11:48 AM 69.1 °F - 35.1 °F 29% 29.87 in 10.0 mi Calm Calm - N/A   Clear
12:48 PM 72.0 °F - 34.0 °F 25% 29.84 in 10.0 mi WNW 4.6 mph - N/A   Clear
1:48 PM 73.0 °F - 33.1 °F 23% 29.82 in 10.0 mi SSW 10.4 mph - N/A   Clear
2:48 PM 72.0 °F - 30.9 °F 22% 29.82 in 10.0 mi SW 9.2 mph - N/A   Clear
3:48 PM 73.9 °F - 30.0 °F 20% 29.80 in 10.0 mi WSW 10.4 mph - N/A   Clear
4:48 PM 73.0 °F - 32.0 °F 22% 29.80 in 10.0 mi SW 11.5 mph - N/A   Clear
5:48 PM 69.1 °F - 33.1 °F 26% 29.81 in 10.0 mi SW 8.1 mph - N/A   Clear
6:48 PM 61.0 °F - 37.9 °F 42% 29.84 in 10.0 mi South 9.2 mph - N/A   Clear
7:48 PM 57.9 °F - 37.9 °F 47% 29.84 in 10.0 mi South 10.4 mph - N/A   Clear
8:48 PM 55.9 °F - 37.9 °F 51% 29.84 in 10.0 mi East 4.6 mph - N/A   Clear
9:48 PM 53.1 °F - 39.9 °F 61% 29.85 in 10.0 mi ESE 4.6 mph - N/A   Clear
10:48 PM 51.1 °F - 39.9 °F 66% 29.85 in 10.0 mi Calm Calm - N/A   Clear
11:48 PM 52.0 °F - 37.9 °F 59% 29.84 in 10.0 mi South 3.5 mph - N/A   Clear